User: anonymous   Login
Location: Unspecified
(0.0000°N, 0.0000°E)
Time: 00:55:03
(UTC+00:00)
Language:

Courier 1B - Orbit

View from above orbital plane
View from above orbital plane
View from above satellite
View from above satellite

Ground track
Ground track

The orbit data is extracted from the following two-line orbital elements,

1    58U 60013A   19022.79113207  .00000079  00000-0 -10392-4 0  9993
2    58  28.3258 170.4114 0164854 153.1847 207.7329 13.46316006870148
Epoch (UTC): 22 January 2019 18:59:13
Eccentricity: 0.0164854
inclination: 28.3258°
perigee height: 963 km
apogee height: 1209 km
right ascension of ascending node: 170.4114°
argument of perigee: 153.1847°
revolutions per day: 13.46316006
mean anomaly at epoch: 207.7329°
orbit number at epoch: 87014

The dashed part of the orbit path shows where the satellite is in the earth's shadow,  

DLR